| time (UTC) | temp F | wind direction | speed MPH | gust MPH | rain 1hr in | rain 24hr in | rain mn in | humidity % | barometer mb |
| 20260510074543 | 52 | 190 | 0.0 | 3.0 | 0.00 | 0.16 | 0.00 | 99 | 1012.3 |
| 20260510073040 | 51 | 0 | 0.0 | 2.0 | 0.00 | 0.16 | 0.00 | 99 | 1012.3 |
| 20260510071540 | 51 | 189 | 0.0 | 2.0 | 0.00 | 0.16 | 0.00 | 99 | 1012.1 |
| 20260510070039 | 51 | 161 | 1.0 | 5.0 | 0.00 | 0.16 | 0.00 | 99 | 1012.0 |
| 20260510064540 | 51 | 209 | 1.0 | 7.0 | 0.00 | 0.16 | 0.00 | 98 | 1012.1 |
| 20260510063038 | 51 | 197 | 1.0 | 4.0 | 0.00 | 0.16 | 0.00 | 98 | 1012.0 |
| 20260510061543 | 51 | 237 | 1.0 | 4.0 | 0.00 | 0.16 | 0.00 | 98 | 1011.9 |
| 20260510060042 | 52 | 204 | 1.0 | 5.0 | 0.00 | 0.16 | 0.00 | 98 | 1012.3 |
| 20260510054538 | 52 | 191 | 1.0 | 5.0 | 0.00 | 0.16 | 0.00 | 98 | 1012.2 |
| 20260510053038 | 52 | 182 | 1.0 | 6.0 | 0.00 | 0.16 | 0.00 | 98 | 1012.1 |
| 20260510051537 | 52 | 162 | 2.0 | 7.0 | 0.00 | 0.16 | 0.00 | 98 | 1012.0 |
| 20260510050041 | 52 | 155 | 1.0 | 5.0 | 0.00 | 0.16 | 0.00 | 98 | 1012.0 |
| 20260510044544 | 52 | 229 | 1.0 | 6.0 | 0.00 | 0.16 | 0.00 | 98 | 1012.1 |
| 20260510043040 | 52 | 0 | 1.0 | 9.0 | 0.00 | 0.16 | 0.00 | 98 | 1012.0 |
| 20260510041539 | 52 | 184 | 2.0 | 6.0 | 0.00 | 0.16 | 0.00 | 97 | 1012.2 |
| 20260510040039 | 52 | 165 | 2.0 | 4.0 | 0.00 | 0.16 | 0.00 | 97 | 1012.3 |
| 20260510034548 | 52 | 163 | 0.0 | 5.0 | 0.00 | 0.16 | 0.16 | 97 | 1012.3 |
| 20260510033053 | 51 | 0 | 1.0 | 3.0 | 0.01 | 0.16 | 0.16 | 97 | 1012.4 |
| 20260510031544 | 51 | 168 | 0.0 | 4.0 | 0.01 | 0.16 | 0.16 | 96 | 1012.3 |
| 20260510030043 | 51 | 192 | 1.0 | 5.0 | 0.04 | 0.16 | 0.16 | 96 | 1012.6 |
| 20260510024541 | 51 | 142 | 2.0 | 5.0 | 0.05 | 0.16 | 0.16 | 96 | 1012.5 |
| 20260510023037 | 51 | 146 | 0.0 | 5.0 | 0.04 | 0.15 | 0.15 | 95 | 1012.4 |
| 20260510021546 | 51 | 0 | 1.0 | 5.0 | 0.04 | 0.15 | 0.15 | 95 | 1012.3 |
| 20260510020045 | 52 | 117 | 1.0 | 7.0 | 0.01 | 0.12 | 0.12 | 94 | 1012.5 |
| 20260510014543 | 51 | 0 | 1.0 | 8.0 | 0.00 | 0.11 | 0.11 | 94 | 1012.7 |
| 20260510013040 | 51 | 180 | 1.0 | 8.0 | 0.00 | 0.11 | 0.11 | 95 | 1012.8 |
| 20260510011537 | 51 | 179 | 3.0 | 10.0 | 0.01 | 0.11 | 0.11 | 95 | 1012.9 |
| 20260510010043 | 51 | 161 | 4.0 | 10.0 | 0.01 | 0.11 | 0.11 | 96 | 1012.9 |
| 20260510004546 | 51 | 144 | 3.0 | 10.0 | 0.02 | 0.11 | 0.11 | 95 | 1013.0 |
| 20260510003057 | 51 | 133 | 4.0 | 10.0 | 0.03 | 0.11 | 0.11 | 95 | 1013.0 |
| 20260510001542 | 51 | 142 | 4.0 | 10.0 | 0.02 | 0.10 | 0.10 | 95 | 1013.1 |
| 20260510000042 | 51 | 189 | 3.0 | 9.0 | 0.03 | 0.10 | 0.10 | 95 | 1013.2 |
| 20260509234543 | 52 | 174 | 2.0 | 10.0 | 0.03 | 0.09 | 0.09 | 94 | 1013.3 |
| 20260509233047 | 52 | 204 | 4.0 | 10.0 | 0.02 | 0.08 | 0.08 | 93 | 1013.6 |
| 20260509231543 | 52 | 171 | 4.0 | 14.0 | 0.02 | 0.08 | 0.08 | 92 | 1013.8 |
| 20260509230051 | 53 | 207 | 3.0 | 11.0 | 0.01 | 0.07 | 0.07 | 93 | 1013.7 |
| 20260509224553 | 53 | 202 | 5.0 | 9.0 | 0.00 | 0.06 | 0.06 | 93 | 1013.6 |
| 20260509223047 | 53 | 234 | 4.0 | 13.0 | 0.01 | 0.06 | 0.06 | 93 | 1013.8 |
| 20260509221541 | 53 | 208 | 3.0 | 12.0 | 0.01 | 0.06 | 0.06 | 94 | 1013.7 |
| 20260509220038 | 53 | 225 | 3.0 | 11.0 | 0.01 | 0.06 | 0.06 | 94 | 1013.6 |
| 20260509214541 | 53 | 214 | 3.0 | 10.0 | 0.02 | 0.06 | 0.06 | 94 | 1013.4 |
| 20260509213038 | 53 | 210 | 3.0 | 11.0 | 0.02 | 0.05 | 0.05 | 94 | 1013.4 |
| 20260509211536 | 53 | 208 | 1.0 | 9.0 | 0.02 | 0.05 | 0.05 | 93 | 1013.0 |
| 20260509210048 | 53 | 211 | 4.0 | 11.0 | 0.02 | 0.05 | 0.05 | 93 | 1012.4 |
| 20260509204540 | 54 | 219 | 4.0 | 11.0 | 0.01 | 0.04 | 0.04 | 91 | 1012.9 |
| 20260509203051 | 55 | 210 | 4.0 | 12.0 | 0.00 | 0.03 | 0.03 | 87 | 1013.0 |
| 20260509201538 | 55 | 199 | 4.0 | 15.0 | 0.00 | 0.03 | 0.03 | 86 | 1012.7 |
| 20260509200037 | 56 | 196 | 6.0 | 15.0 | 0.00 | 0.03 | 0.03 | 86 | 1012.9 |
| 20260509194538 | 55 | 240 | 6.0 | 16.0 | 0.00 | 0.10 | 0.03 | 86 | 1013.0 |
| 20260509193042 | 56 | 209 | 4.0 | 11.0 | 0.00 | 0.10 | 0.03 | 86 | 1013.1 |
| 20260509191539 | 56 | 180 | 4.0 | 10.0 | 0.00 | 0.10 | 0.03 | 85 | 1013.4 |
| 20260509190040 | 56 | 175 | 4.0 | 12.0 | 0.00 | 0.10 | 0.03 | 84 | 1013.3 |
| 20260509184545 | 57 | 195 | 5.0 | 15.0 | 0.00 | 0.10 | 0.03 | 82 | 1013.4 |
| 20260509183047 | 58 | 191 | 3.0 | 8.0 | 0.00 | 0.10 | 0.03 | 81 | 1013.4 |
| 20260509181545 | 58 | 155 | 4.0 | 10.0 | 0.00 | 0.10 | 0.03 | 79 | 1013.3 |
| 20260509180109 | 59 | 253 | 5.0 | 13.0 | 0.00 | 0.10 | 0.03 | 77 | 1013.6 |
| 20260509174539 | 59 | 191 | 4.0 | 11.0 | 0.00 | 0.10 | 0.03 | 80 | 1013.7 |
| 20260509173043 | 59 | 143 | 3.0 | 13.0 | 0.00 | 0.10 | 0.03 | 79 | 1013.8 |
| 20260509171552 | 58 | 228 | 3.0 | 9.0 | 0.00 | 0.10 | 0.03 | 81 | 1013.8 |
| 20260509170048 | 56 | 178 | 2.0 | 8.0 | 0.00 | 0.10 | 0.03 | 83 | 1014.0 |
| 20260509164543 | 56 | 190 | 4.0 | 13.0 | 0.00 | 0.10 | 0.03 | 80 | 1014.1 |
| 20260509163043 | 56 | 180 | 4.0 | 11.0 | 0.00 | 0.10 | 0.03 | 83 | 1014.1 |
| 20260509161544 | 56 | 202 | 3.0 | 9.0 | 0.00 | 0.10 | 0.03 | 83 | 1014.2 |
| 20260509160047 | 56 | 200 | 3.0 | 9.0 | 0.00 | 0.10 | 0.03 | 82 | 1014.2 |
| 20260509154604 | 56 | 182 | 3.0 | 9.0 | 0.00 | 0.10 | 0.03 | 80 | 1014.4 |
| 20260509153051 | 56 | 157 | 3.0 | 10.0 | 0.00 | 0.10 | 0.03 | 81 | 1014.5 |
| 20260509151551 | 55 | 134 | 3.0 | 12.0 | 0.00 | 0.10 | 0.03 | 82 | 1014.5 |
| 20260509150043 | 55 | 157 | 5.0 | 12.0 | 0.01 | 0.10 | 0.03 | 81 | 1014.4 |
| 20260509144538 | 55 | 187 | 5.0 | 12.0 | 0.01 | 0.10 | 0.03 | 82 | 1014.3 |
| 20260509143100 | 55 | 173 | 4.0 | 11.0 | 0.01 | 0.10 | 0.03 | 83 | 1014.5 |
| 20260509141544 | 55 | 189 | 4.0 | 10.0 | 0.01 | 0.10 | 0.03 | 83 | 1014.5 |
| 20260509140045 | 55 | 136 | 2.0 | 7.0 | 0.00 | 0.09 | 0.02 | 86 | 1014.2 |
| 20260509134536 | 54 | 0 | 1.0 | 4.0 | 0.00 | 0.09 | 0.02 | 88 | 1014.5 |
| 20260509133057 | 52 | 173 | 1.0 | 7.0 | 0.00 | 0.09 | 0.02 | 89 | 1014.8 |
| 20260509131543 | 52 | 159 | 2.0 | 7.0 | 0.00 | 0.09 | 0.02 | 91 | 1015.0 |
| 20260509130042 | 52 | 164 | 3.0 | 10.0 | 0.00 | 0.09 | 0.02 | 91 | 1015.1 |
| 20260509124540 | 52 | 175 | 2.0 | 7.0 | 0.00 | 0.09 | 0.02 | 93 | 1015.3 |
| 20260509123039 | 51 | 163 | 2.0 | 9.0 | 0.00 | 0.09 | 0.02 | 93 | 1015.2 |
| 20260509121546 | 51 | 162 | 2.0 | 8.0 | 0.00 | 0.09 | 0.02 | 95 | 1015.4 |
| 20260509120040 | 51 | 162 | 1.0 | 6.0 | 0.00 | 0.09 | 0.02 | 96 | 1015.2 |
| 20260509114537 | 50 | 155 | 0.0 | 3.0 | 0.00 | 0.09 | 0.02 | 96 | 1015.2 |
| 20260509113039 | 50 | 0 | 0.0 | 2.0 | 0.00 | 0.09 | 0.02 | 96 | 1014.8 |
| 20260509111543 | 49 | 0 | 0.0 | 3.0 | 0.01 | 0.09 | 0.02 | 96 | 1014.9 |
| 20260509110037 | 49 | 0 | 0.0 | 5.0 | 0.02 | 0.09 | 0.02 | 96 | 1015.2 |
| 20260509104559 | 49 | 0 | 0.0 | 4.0 | 0.02 | 0.09 | 0.02 | 95 | 1015.2 |
| 20260509103041 | 49 | 0 | 0.0 | 5.0 | 0.02 | 0.09 | 0.02 | 95 | 1015.1 |
| 20260509101539 | 49 | 0 | 0.0 | 4.0 | 0.01 | 0.08 | 0.01 | 94 | 1015.1 |
| 20260509100037 | 49 | 144 | 0.0 | 3.0 | 0.00 | 0.07 | 0.00 | 93 | 1015.1 |
| 20260509094546 | 49 | 199 | 0.0 | 4.0 | 0.00 | 0.07 | 0.00 | 93 | 1015.3 |
| 20260509093037 | 49 | 0 | 0.0 | 6.0 | 0.00 | 0.07 | 0.00 | 93 | 1014.9 |
| 20260509091544 | 49 | 163 | 1.0 | 4.0 | 0.00 | 0.07 | 0.00 | 94 | 1014.6 |
| 20260509090050 | 49 | 0 | 1.0 | 6.0 | 0.00 | 0.07 | 0.00 | 94 | 1014.4 |
| 20260509084538 | 47 | 149 | 2.0 | 5.0 | 0.00 | 0.07 | 0.00 | 93 | 1014.3 |
| 20260509083037 | 47 | 0 | 0.0 | 0.0 | 0.00 | 0.07 | 0.00 | 92 | 1014.0 |
| 20260509081551 | 47 | 0 | 0.0 | 0.0 | 0.00 | 0.07 | 0.00 | 93 | 1014.1 |
| 20260509080044 | 47 | 0 | 0.0 | 0.0 | 0.00 | 0.07 | 0.00 | 93 | 1014.0 |